Location: Unspecified
(58.7730°N, 5.8460°E)
Time: 07:09:53
(UTC+02:00)

CZ-3 Stage 3 - Visible Passes

Search period start: 23 October 2014 00:00
Search period end: 01 November 2014 23:00
Orbit: 415 x 34824 km, 30.9° (Epoch: 21 October)

Date Brightness Start Highest point End Pass type
(mag) Time Alt. Az. Time Alt. Az. Time Alt. Az.
23 Oct 7.3 03:40:12 10° SW 07:48:46 31° SSW 08:01:50 10° SE visible
23 Oct 7.8 23:35:12 10° SSE 03:54:38 33° SSE 04:26:52 10° ESE visible
24 Oct 8.5 23:01:58 10° ESE 23:57:48 13° ESE 00:29:05 10° E visible
26 Oct 7.2 02:24:14 10° SW 06:45:03 31° SSW 06:58:04 10° SSE visible
26 Oct 7.7 22:19:31 10° SSE 02:51:16 34° SSE 03:23:22 10° ESE visible
27 Oct 8.4 21:41:41 10° ESE 22:53:32 15° ESE 23:29:23 10° E visible
29 Oct 7.1 02:08:12 10° SW 06:41:11 31° SSW 06:54:11 10° SSE visible
29 Oct 7.7 22:03:59 10° SSE 02:47:43 35° SSE 03:19:42 10° ESE visible
30 Oct 8.4 21:22:33 10° ESE 22:49:07 16° ESE 23:28:25 10° E visible
01 Nov 7.1 01:52:16 10° SW 06:37:09 31° SSW 06:50:08 10° SSE visible
01 Nov 10.5 21:48:38 10° SSE 23:00:00 17° SSE 23:00:00 17° SSE visible
